Torna al catalogo

DELTA 1 DEB

AttivoPO
NORAD 21546·DEBRIS·🇺🇸 United States

Lanciato Jun 12, 1975 da Vandenberg Space Force Base

Loading…

Prossimi Passaggi (prossime 24 ore)

TLE

AggiornatoSource: Space-Track

Epoca: Sep 14, 2026, 14:00 UTC

1 21546U 75052HA  26257.58387939  .00000857  00000-0  41512-2 0  9996
2 21546  99.5503 176.0001 0607035 145.0957 341.3342 12.28911732579522

Traccia DELTA 1 DEB in tempo reale con AllMySat

Download on the App Store